TimeEDT,TemperatureF,Dew PointF,Humidity,Sea Level PressureIn,VisibilityMPH,Wind Direction,Wind SpeedMPH,Gust SpeedMPH,PrecipitationIn,Events,Conditions,WindDirDegrees,DateUTC
12:53 AM,30.0,27.0,88,30.21,7.0,Calm,Calm,-,N/A,,Clear,0,2013-03-30 04:53:00
1:53 AM,30.0,27.0,88,30.22,6.0,Calm,Calm,-,N/A,,Clear,0,2013-03-30 05:53:00
2:53 AM,28.9,26.1,89,30.22,4.0,Calm,Calm,-,N/A,,Clear,0,2013-03-30 06:53:00
3:53 AM,28.0,24.1,85,30.22,5.0,Calm,Calm,-,N/A,,Clear,0,2013-03-30 07:53:00
4:36 AM,26.6,24.8,93,30.18,1.5,Calm,Calm,-,N/A,,Clear,0,2013-03-30 08:36:00
4:38 AM,26.6,24.8,93,30.18,1.0,Calm,Calm,-,N/A,,Clear,0,2013-03-30 08:38:00
4:42 AM,26.6,24.8,93,30.18,0.5,Calm,Calm,-,N/A,Fog,Light Freezing Fog,0,2013-03-30 08:42:00
4:48 AM,26.6,24.8,93,30.18,1.0,Calm,Calm,-,N/A,,Clear,0,2013-03-30 08:48:00
4:50 AM,26.6,24.8,93,30.18,2.0,Calm,Calm,-,N/A,,Clear,0,2013-03-30 08:50:00
4:53 AM,27.0,24.1,89,30.22,4.0,Calm,Calm,-,N/A,,Clear,0,2013-03-30 08:53:00
5:53 AM,25.0,23.0,92,30.22,6.0,Calm,Calm,-,N/A,,Clear,0,2013-03-30 09:53:00
6:53 AM,26.1,23.0,88,30.24,4.0,Calm,Calm,-,N/A,,Clear,0,2013-03-30 10:53:00
7:09 AM,24.8,21.2,86,30.19,4.0,Calm,Calm,-,N/A,,Partly Cloudy,0,2013-03-30 11:09:00
7:53 AM,28.0,25.0,88,30.25,5.0,Calm,Calm,-,N/A,,Partly Cloudy,0,2013-03-30 11:53:00
8:53 AM,34.0,30.0,85,30.25,8.0,Calm,Calm,-,N/A,,Partly Cloudy,0,2013-03-30 12:53:00
9:53 AM,39.0,30.9,73,30.25,10.0,SW,3.5,-,N/A,,Clear,220,2013-03-30 13:53:00
10:53 AM,43.0,26.1,51,30.24,10.0,SW,4.6,-,N/A,,Clear,230,2013-03-30 14:53:00
11:53 AM,45.0,25.0,46,30.22,10.0,SW,4.6,-,N/A,,Partly Cloudy,220,2013-03-30 15:53:00
12:53 PM,46.9,26.1,44,30.20,10.0,Variable,6.9,16.1,N/A,,Partly Cloudy,0,2013-03-30 16:53:00
1:53 PM,48.0,28.9,48,30.18,10.0,SSW,11.5,-,N/A,,Partly Cloudy,210,2013-03-30 17:53:00
2:53 PM,48.9,27.0,43,30.17,10.0,SSW,12.7,24.2,N/A,,Partly Cloudy,200,2013-03-30 18:53:00
3:53 PM,48.9,26.1,41,30.15,10.0,WSW,15.0,-,N/A,,Scattered Clouds,240,2013-03-30 19:53:00
4:53 PM,48.9,24.1,38,30.14,10.0,SW,10.4,19.6,N/A,,Scattered Clouds,220,2013-03-30 20:53:00
5:53 PM,48.0,23.0,37,30.14,10.0,SW,12.7,-,N/A,,Scattered Clouds,220,2013-03-30 21:53:00
6:53 PM,46.0,21.9,39,30.11,10.0,WSW,6.9,-,N/A,,Scattered Clouds,240,2013-03-30 22:53:00
7:53 PM,44.1,19.9,38,30.10,10.0,South,4.6,-,N/A,,Scattered Clouds,190,2013-03-30 23:53:00
8:53 PM,39.9,21.0,47,30.09,10.0,South,5.8,-,N/A,,Partly Cloudy,170,2013-03-31 00:53:00
9:53 PM,39.0,21.9,50,30.08,10.0,SSE,5.8,-,N/A,,Partly Cloudy,160,2013-03-31 01:53:00
10:53 PM,37.9,21.0,51,30.05,10.0,SSE,5.8,-,N/A,,Partly Cloudy,150,2013-03-31 02:53:00
11:53 PM,37.0,21.0,52,30.04,10.0,SSE,5.8,-,N/A,,Clear,150,2013-03-31 03:53:00